DW7480 Oulu FI current weather conditions

sailwx.info

Wind from 038

Air temperature -21.1° C
Dewpoint -22.6° C

Last reported at 2019-Jan-23 09:01 UTC.
Time now 2019-Jan-23 09:33 UTC

Location: N 65°05' E 025°31'.
View on Google Maps.

See reports from other nearby stations

  
Tides and Currents Weather Stations Pressure Air Temp Water Temp Dewpoint Dewpoint Depression Visibility Wind Speed Wind Dir Waves Ship Positions
date/time (UTC)wind fromknots sea level pressurealtimeterstation pressurevisibilityair tempwater tempwave heightnotes
2019-Jan-23 09:01 038 -21.1
2019-Jan-23 08:46 038 -21.1
2019-Jan-23 08:31 038 -21.1
2019-Jan-23 08:16 038 -21.1
2019-Jan-23 08:00 038 -21.1
2019-Jan-23 07:45 038 -20.6
2019-Jan-23 07:30 038 -20.6
2019-Jan-23 07:15 038 -20.0
2019-Jan-23 07:00 038 -20.0
2019-Jan-23 06:45 038 -19.4
2019-Jan-23 06:32 039 -18.9
2019-Jan-23 06:30 039 -18.9
2019-Jan-23 06:17 039 -18.3
2019-Jan-23 06:01 038 -17.8
2019-Jan-23 05:46 039 -17.8
2019-Jan-23 05:31 039 -17.8
2019-Jan-23 05:16 039 -17.2
2019-Jan-23 05:01 039 -16.7
2019-Jan-23 04:46 039 -16.1
2019-Jan-23 04:30 039 -15.6
2019-Jan-23 04:16 041 -15.0
2019-Jan-23 04:01 045 -14.4
2019-Jan-23 03:46 046 -14.4
2019-Jan-23 03:30 046 -13.9
2019-Jan-23 03:15 046 -13.9
2019-Jan-23 03:00 046 -13.3
2019-Jan-23 02:45 046 -12.8
2019-Jan-23 02:30 046 -12.8
2019-Jan-23 02:15 046 -12.2
2019-Jan-23 02:00 046 -12.2
2019-Jan-23 01:45 046 -12.2
2019-Jan-23 01:30 046 -12.2
2019-Jan-23 01:15 125 -12.2
2019-Jan-23 01:00 125 -12.2
2019-Jan-23 00:45 125 -12.2
2019-Jan-23 00:30 125 -12.2
2019-Jan-23 00:17 125 -12.2
2019-Jan-23 00:01 125 -12.2
2019-Jan-22 23:47 125 -12.2
2019-Jan-22 23:32 125 -12.2
2019-Jan-22 23:17 125 -12.2
2019-Jan-22 23:02 125 -12.2
2019-Jan-22 22:47 125 -12.2
2019-Jan-22 22:31 125 -12.2
2019-Jan-22 22:16 125 -12.2
2019-Jan-22 22:01 125 -12.2
2019-Jan-22 21:46 125 -12.8
2019-Jan-22 21:31 125 -12.8
2019-Jan-22 21:15 125 -12.8
2019-Jan-22 21:00 125 -12.8
2019-Jan-22 20:45 125 -12.8
2019-Jan-22 20:30 125 -12.2
2019-Jan-22 20:15 125 -12.2
2019-Jan-22 20:00 125 -12.2
2019-Jan-22 19:45 125 -12.2
2019-Jan-22 19:30 125 -12.8
2019-Jan-22 19:15 125 -12.8
2019-Jan-22 19:01 125 -13.3
2019-Jan-22 18:46 125 -13.9
2019-Jan-22 18:32 125 -14.4
2019-Jan-22 18:17 125 -15.0
2019-Jan-22 18:01 125 -15.6
2019-Jan-22 17:45 125 -15.6
2019-Jan-22 17:31 125 -16.1
2019-Jan-22 17:15 125 -17.2
2019-Jan-22 17:00 125 -17.8
2019-Jan-22 16:45 125 -17.8
2019-Jan-22 16:30 125 -17.8
2019-Jan-22 16:15 125 -17.8
2019-Jan-22 16:00 125 -17.2
2019-Jan-22 15:47 125 -17.2
2019-Jan-22 15:32 125 -17.2
2019-Jan-22 15:17 125 -16.7
2019-Jan-22 15:01 125 -16.7
2019-Jan-22 14:46 125 -16.7
2019-Jan-22 14:31 125 -16.7
2019-Jan-22 14:15 125 -17.2
2019-Jan-22 14:00 125 -17.8
2019-Jan-22 13:45 125 -17.8
2019-Jan-22 13:30 125 -17.8
2019-Jan-22 13:15 125 -17.8
2019-Jan-22 13:00 125 -17.8
2019-Jan-22 12:45 125 -17.2
2019-Jan-22 12:17 125 -17.2
2019-Jan-22 12:01 125 -17.2
2019-Jan-22 11:47 125 -17.8
2019-Jan-22 11:31 125 -17.8
2019-Jan-22 11:16 125 -18.3
2019-Jan-22 11:01 125 -18.9
2019-Jan-22 10:46 125 -19.4
2019-Jan-22 10:30 125 -19.4
2019-Jan-22 10:15 125 -20.0
2019-Jan-22 10:00 125 -20.6
2019-Jan-22 09:45 125 -21.7
2019-Jan-22 09:30 125 -22.2
2019-Jan-22 09:15 125 -22.8
2019-Jan-22 09:03 125 -23.3
2019-Jan-22 08:47 125 -23.9
2019-Jan-22 08:31 125 -24.4
2019-Jan-22 08:16 125 -25.0
2019-Jan-22 08:01 125 -25.6
2019-Jan-22 07:46 125 -26.7
2019-Jan-22 07:31 125 -26.7
2019-Jan-22 07:15 125 -26.7
2019-Jan-22 07:00 125 -26.7
2019-Jan-22 06:45 125 -26.7
2019-Jan-22 06:30 125 -26.7
2019-Jan-22 06:15 125 -26.7
2019-Jan-22 06:00 125 -26.7
2019-Jan-22 05:45 125 -26.7
2019-Jan-22 05:31 125 -26.7
2019-Jan-22 05:16 125 -26.7
2019-Jan-22 05:01 125 -26.7
2019-Jan-22 04:46 125 -26.7
2019-Jan-22 04:31 125 -26.7
2019-Jan-22 04:16 125 -26.7
2019-Jan-22 04:01 125 -26.7
2019-Jan-22 03:46 125 -26.7
2019-Jan-22 03:30 125 -26.7
2019-Jan-22 03:15 125 -26.1
2019-Jan-22 03:00 125 -26.1
2019-Jan-22 02:45 125 -26.1
2019-Jan-22 02:30 125 -25.6
2019-Jan-22 02:17 125 -25.6
2019-Jan-22 02:01 125 -25.6
2019-Jan-22 01:47 125 -25.6
2019-Jan-22 01:31 125 -25.0
2019-Jan-22 01:16 125 -25.0
2019-Jan-22 01:01 125 -25.0
2019-Jan-22 00:46 125 -24.4
2019-Jan-22 00:30 125 -24.4
2019-Jan-22 00:15 125 -23.9
2019-Jan-22 00:01 125 -23.9
2019-Jan-21 23:45 125 -23.9
2019-Jan-21 23:30 125 -23.9
2019-Jan-21 23:16 125 -23.3
2019-Jan-21 23:00 125 -22.8
2019-Jan-21 22:46 125 -22.8
2019-Jan-21 22:31 125 -22.2
2019-Jan-21 22:16 125 -22.2
2019-Jan-21 22:01 125 -22.2
2019-Jan-21 21:46 125 -22.2
2019-Jan-21 21:31 125 -22.8
2019-Jan-21 21:16 125 -23.3
2019-Jan-21 21:01 125 -23.3
2019-Jan-21 20:45 125 -23.3
2019-Jan-21 20:30 125 -22.8
2019-Jan-21 20:15 125 -22.2
2019-Jan-21 20:00 125 -21.7
2019-Jan-21 19:45 125 -21.1
2019-Jan-21 19:31 125 -21.1
2019-Jan-21 19:17 125 -20.6
2019-Jan-21 19:01 125 -20.0
2019-Jan-21 18:46 125 -19.4
2019-Jan-21 18:31 125 -19.4
2019-Jan-21 18:16 125 -18.9
2019-Jan-21 18:01 125 -18.3
2019-Jan-21 17:45 125 -17.8
2019-Jan-21 17:30 125 -17.2
2019-Jan-21 17:15 125 -17.2
2019-Jan-21 17:00 125 -17.2
2019-Jan-21 16:45 125 -17.2
2019-Jan-21 16:30 125 -17.2
2019-Jan-21 16:15 125 -17.2
2019-Jan-21 16:01 125 -17.2
2019-Jan-21 15:46 125 -17.2
2019-Jan-21 15:31 125 -17.8
2019-Jan-21 15:16 125 -17.8
2019-Jan-21 15:01 125 -17.8
2019-Jan-21 14:46 125 -17.8
2019-Jan-21 14:32 125 -18.3
2019-Jan-21 14:15 125 -18.9
2019-Jan-21 14:01 125 -18.3
2019-Jan-21 13:45 125 -18.3
2019-Jan-21 13:30 125 -18.3
2019-Jan-21 13:15 125 -18.9
2019-Jan-21 13:00 125 -18.9
2019-Jan-21 12:46 123 -19.4
2019-Jan-21 12:31 116 -20.0
2019-Jan-21 12:17 110 -20.6
2019-Jan-21 12:01 107 -21.7
2019-Jan-21 11:46 107 -22.2
2019-Jan-21 11:31 107 -22.8
2019-Jan-21 11:16 107 -23.9
2019-Jan-21 11:01 107 -25.0
2019-Jan-21 10:45 107 -25.0
2019-Jan-21 10:31 107 -25.0
2019-Jan-21 10:15 107 -25.6
2019-Jan-21 10:00 107 -26.1
2019-Jan-21 09:45 107 -27.2
2019-Jan-21 09:30 107 -27.8
2019-Jan-21 09:16 107 -28.3
2019-Jan-21 09:02 107 -27.8